[[{"header":{"parameterUnit":"m.s-1","parameterCategory":1,"la1":30.2991,"la2":30.254,"lo1":-89.0895,"lo2":-89.0444,"dy":0.0017,"dx":0.0017,"nx":28,"ny":28,"refTime":"2023-08-09T03:00:00:Z","depth":0,"parameterNumber":2,"parameterNumberName":"U-component_of_WINDS"},"data":[0,0,0,0,0,0,0,0,0,0,0,0,0,0,0,0,0,0,0,0,0,0,0,0,0,0,0,0,0,0,0,0,0,0,0,0,0,0,0,0,0,0,0,0,0,0,0,0,0,0,0,0,0,0,0,0,0,0,5.2412,5.2413,0,5.2452,5.2453,5.2453,5.2443,5.2442,5.2441,5.244,5.2482,5.2484,5.2486,0,0,0,0,0,0,0,0,0,0,0,0,0,5.2326,5.2328,5.2412,5.2413,5.2413,5.2452,5.2453,5.2453,5.2443,5.2442,5.2441,5.244,5.2482,5.2484,5.2486,0,0,0,0,0,0,0,0,0,0,0,0,0,5.2365,5.2329,5.2412,5.2413,5.2413,5.2452,5.2453,5.2454,5.2443,5.2442,5.244,5.2439,5.2481,5.2484,5.2486,5.2528,0,0,5.2495,5.2496,0,0,0,0,0,0,0,0,5.2363,5.2368,5.2412,5.2413,5.2413,5.2441,5.2438,5.2478,5.2443,5.2432,5.244,5.2439,5.247,5.2473,5.2483,5.253,5.2532,5.2495,5.2497,5.2498,5.2499,0,0,0,0,0,0,0,5.236,5.2366,5.2428,5.2413,5.2413,5.2411,5.2415,5.2446,5.2457,5.2432,5.2432,5.2437,5.247,5.2481,5.2484,5.2532,5.2495,5.2498,5.2499,5.25,5.2614,5.2615,0,0,0,0,0,0,5.2357,5.2364,5.2427,5.2429,5.2384,5.2413,5.2418,5.2433,5.2457,5.2459,5.2438,5.2436,5.2477,5.2481,5.2486,5.2535,5.2498,5.2501,5.2502,5.2612,5.2614,5.2615,0,0,0,0,0,0,5.2355,5.2363,5.2425,5.2397,5.2404,5.2416,5.2434,5.2435,5.2446,5.246,5.2462,5.2447,5.2476,5.2482,5.2517,5.2536,5.2502,5.2504,5.2611,5.2613,5.2615,5.2634,0,0,0,0,0,0,5.2353,5.2362,5.2378,5.2397,5.2406,5.2456,5.2435,5.2437,5.2451,5.2449,5.247,5.2472,5.2475,5.2513,5.252,5.2539,5.2507,5.2609,5.2612,5.2614,5.2631,5.2636,5.264,0,0,0,0,0,5.235,5.2382,5.2379,5.2386,5.2426,5.2457,5.2462,5.2465,5.2452,5.2468,5.2477,5.2471,5.2533,5.2517,5.2524,5.2545,5.2608,5.2611,5.2614,5.2629,5.2635,5.264,0,0,0,0,0,0,5.2365,5.2385,5.2381,5.2421,5.2437,5.2455,5.2475,5.2471,5.2492,5.2489,5.2493,5.2497,5.2533,5.2543,5.2524,5.2586,5.2569,5.2573,5.2578,5.2583,5.2588,5.2584,5.2509,0,0,0,0,0,5.2373,5.2397,5.2412,5.2446,5.2454,5.2463,5.2477,5.2478,5.2495,5.2502,5.2514,5.2531,5.2555,5.257,5.2592,5.2633,5.2637,5.2651,5.2655,5.2659,5.2663,5.2684,5.269,5.2625,5.2625,5.2625,0,0,5.239,5.2403,5.2418,5.2449,5.2462,5.2486,5.2469,5.2496,5.2513,5.2506,5.254,5.2549,5.2569,5.2607,5.2624,5.2616,5.2681,5.2663,5.2665,5.2667,5.2687,5.2694,5.2699,5.2627,5.2627,5.2626,0,0,5.2432,5.2446,5.2474,5.2487,5.2507,5.2512,5.2519,5.2538,5.2544,5.2577,5.2572,5.2594,5.2634,5.2648,5.266,5.2707,5.2702,5.2715,5.2737,5.2758,5.2763,5.2767,5.2783,5.2788,5.2719,5.2719,5.2719,0,5.2451,5.2486,5.2489,5.2516,5.2529,5.2524,5.2552,5.2565,5.2591,5.2601,5.2591,5.2641,5.2654,5.2694,5.2706,5.2716,5.2724,5.2712,5.2762,5.2766,5.2771,5.2785,5.2791,5.272,5.272,5.272,5.2719,0,5.2507,5.2532,5.2553,5.2577,5.2594,5.2621,5.2628,5.2644,5.2644,5.265,5.2684,5.27,5.2724,5.2734,5.2735,5.2775,5.2769,5.2761,5.2743,5.2778,5.2792,5.2798,5.2722,5.2721,5.2721,5.2721,0,0,5.256,5.2586,5.2593,5.2603,5.2625,5.2644,5.2671,5.2695,5.2708,5.2726,5.2749,5.2783,5.2775,5.2789,5.2791,5.2809,5.2844,5.2799,5.2799,5.2805,5.2888,5.2893,5.2899,5.2841,5.2842,5.2843,5.2886,0,5.2603,5.265,5.2654,5.2696,5.2719,5.2714,5.2738,5.2753,5.276,5.278,5.2789,5.2812,5.2801,5.2809,5.2827,5.2836,5.286,5.2833,5.2861,5.2862,5.2855,5.2907,5.2912,5.2952,5.2891,5.2892,5.2893,0,5.266,5.2679,5.2723,5.274,5.275,5.2771,5.2793,5.2812,5.283,5.2834,5.2849,5.2848,5.2876,5.2858,5.2896,5.2877,5.2889,5.2896,5.2897,5.2899,5.2879,5.2909,5.2964,5.297,5.2902,5.2901,5.2901,0,5.2692,5.2729,5.276,5.277,5.2791,5.2805,5.2815,5.2831,5.2845,5.2864,5.2873,5.2895,5.2907,5.2925,5.293,5.2917,5.2967,5.295,5.2971,5.297,5.298,5.2979,5.3037,5.2991,5.299,5.299,5.299,0,5.2739,5.2766,5.2775,5.2794,5.2824,5.2827,5.2857,5.2866,5.288,5.2901,5.2899,5.2918,5.2924,5.2945,5.2949,5.2979,5.2985,5.2989,5.2989,5.2988,5.2987,5.2995,5.2992,5.2992,5.2992,5.2991,5.2991,0,5.2779,5.2786,5.282,5.2837,5.2842,5.2863,5.2877,5.2896,5.2903,5.2929,5.2935,5.2946,5.297,5.2977,5.3006,5.3009,5.3043,5.3042,5.3037,5.3037,5.3056,5.3053,5.312,5.3128,5.3077,5.3077,5.3078,0,5.2808,5.2829,5.2848,5.2861,5.2871,5.2893,5.2906,5.2911,5.2925,5.2946,5.2962,5.2986,5.3004,5.3043,5.3053,5.3075,5.3074,5.3096,5.3077,5.3075,5.3072,5.307,5.3072,5.3099,5.3099,5.31,5.31,0,5.2858,5.286,5.288,5.2901,5.2917,5.2934,5.295,5.2961,5.2968,5.2985,5.3009,5.3023,5.3053,5.3076,5.3098,5.3108,5.3105,5.3106,5.3111,5.3109,5.3105,5.3106,5.3045,5.3104,5.3104,5.3103,5.3103,5.3103,5.2892,5.291,5.2926,5.2948,5.296,5.2975,5.2993,5.3001,5.3021,5.3045,5.3047,5.3073,5.3089,5.3119,5.313,5.315,5.3144,5.3152,5.3154,5.3155,5.3156,5.3103,5.3154,5.3154,5.3154,5.3154,5.3154,0,5.2941,5.2951,5.2971,5.2993,5.301,5.3006,5.3023,5.3038,5.306,5.3076,5.3094,5.3122,5.3144,5.3156,5.3178,5.3192,5.3191,5.3197,5.3196,5.3198,5.3161,5.3154,5.3198,5.3198,5.3198,5.3198,5.3198,5.3198,5.2968,5.2997,5.3001,5.3036,5.3046,5.3071,5.3081,5.3095,5.3107,5.3137,5.3155,5.3163,5.3177,5.32,5.322,5.3223,5.3231,5.3238,5.324,5.3205,5.3201,5.3196,5.3189,5.324,5.324,5.3274,5.3275,5.3275]},{"header":{"parameterUnit":"m.s-1","parameterCategory":1,"la1":30.2991,"la2":30.254,"lo1":-89.0895,"lo2":-89.0444,"dy":0.0017,"dx":0.0017,"nx":28,"ny":28,"refTime":"2023-08-09T03:00:00:Z","depth":0,"parameterNumber":3,"parameterNumberName":"V-component_of_WINDS"},"data":[0,0,0,0,0,0,0,0,0,0,0,0,0,0,0,0,0,0,0,0,0,0,0,0,0,0,0,0,0,0,0,0,0,0,0,0,0,0,0,0,0,0,0,0,0,0,0,0,0,0,0,0,0,0,0,0,0,0,2.58,2.5801,0,2.5859,2.5859,2.586,2.5894,2.5894,2.5894,2.5895,2.5951,2.5952,2.5954,0,0,0,0,0,0,0,0,0,0,0,0,0,2.5717,2.5718,2.58,2.5801,2.5802,2.5859,2.5859,2.586,2.5894,2.5894,2.5894,2.5895,2.5951,2.5952,2.5954,0,0,0,0,0,0,0,0,0,0,0,0,0,2.5762,2.5718,2.58,2.5826,2.5829,2.5859,2.5859,2.586,2.5894,2.5894,2.5894,2.5895,2.595,2.5952,2.5954,2.5962,0,0,2.596,2.5961,0,0,0,0,0,0,0,0,2.5759,2.5765,2.5821,2.5824,2.5827,2.587,2.5851,2.5895,2.5894,2.5869,2.5895,2.5895,2.5924,2.5928,2.5938,2.5965,2.5967,2.5961,2.5962,2.5963,2.5963,0,0,0,0,0,0,0,2.5756,2.5762,2.5823,2.5822,2.5826,2.5834,2.584,2.5859,2.5894,2.5871,2.5874,2.588,2.5925,2.5936,2.594,2.5968,2.596,2.5962,2.5964,2.5964,2.6007,2.6007,0,0,0,0,0,0,2.5749,2.576,2.5822,2.5825,2.5793,2.5835,2.5842,2.5856,2.5894,2.59,2.588,2.5882,2.5932,2.5937,2.5942,2.5955,2.5963,2.5965,2.5966,2.6007,2.6007,2.6007,0,0,0,0,0,0,2.5747,2.5754,2.5819,2.5793,2.5802,2.5836,2.5851,2.5857,2.5868,2.5901,2.5907,2.5885,2.5933,2.5939,2.5958,2.5958,2.5965,2.5967,2.6007,2.6007,2.6007,2.5981,0,0,0,0,0,0,2.5745,2.5753,2.5757,2.5793,2.5803,2.5834,2.5851,2.5858,2.5871,2.5874,2.5907,2.5913,2.5933,2.5954,2.596,2.5961,2.5969,2.6007,2.6007,2.6007,2.5982,2.598,2.5979,0,0,0,0,0,2.5741,2.5746,2.5757,2.5764,2.5809,2.5834,2.584,2.5865,2.5871,2.5875,2.5897,2.5912,2.5957,2.5956,2.5962,2.5964,2.6007,2.6007,2.6007,2.5983,2.5981,2.5979,0,0,0,0,0,0,2.5708,2.5752,2.5764,2.5781,2.5804,2.584,2.5846,2.5861,2.5882,2.5883,2.5912,2.5919,2.5935,2.5951,2.595,2.5975,2.5984,2.5985,2.5964,2.5962,2.596,2.5955,2.5971,0,0,0,0,0,2.5703,2.5721,2.5758,2.5769,2.578,2.5811,2.5823,2.584,2.5865,2.5874,2.5897,2.592,2.5939,2.5951,2.5971,2.5985,2.5993,2.5989,2.5987,2.5986,2.5986,2.5996,2.5995,2.6006,2.6006,2.6006,0,0,2.5692,2.5718,2.5727,2.5763,2.5783,2.58,2.5819,2.5836,2.5849,2.5876,2.5896,2.5914,2.5941,2.5958,2.5966,2.5972,2.5985,2.5985,2.5984,2.5985,2.5996,2.5995,2.5994,2.6006,2.6006,2.6006,0,0,2.5681,2.5702,2.5715,2.5735,2.5766,2.5787,2.579,2.5824,2.5837,2.5858,2.5879,2.5895,2.5928,2.5947,2.5961,2.5959,2.5974,2.5965,2.5955,2.5964,2.5964,2.5963,2.5963,2.5963,2.5965,2.5965,2.5965,0,2.5663,2.5691,2.5719,2.5736,2.5752,2.5779,2.5792,2.581,2.5844,2.5854,2.586,2.5903,2.5923,2.5945,2.5945,2.5955,2.596,2.5961,2.5962,2.5961,2.5961,2.5962,2.5962,2.5964,2.5964,2.5964,2.5964,0,2.5668,2.5687,2.5694,2.5729,2.5745,2.576,2.579,2.5803,2.5819,2.5839,2.586,2.5886,2.5912,2.5918,2.5933,2.5943,2.5946,2.5956,2.5966,2.5958,2.596,2.596,2.5962,2.5963,2.5963,2.5963,0,0,2.5636,2.5688,2.569,2.5707,2.5744,2.5759,2.5775,2.5802,2.5813,2.5837,2.5851,2.588,2.589,2.5906,2.5924,2.5932,2.5931,2.5942,2.5943,2.5939,2.5944,2.5936,2.5936,2.5941,2.5941,2.5941,2.5942,0,2.5631,2.5663,2.569,2.5711,2.573,2.5757,2.5772,2.5795,2.5815,2.5834,2.5855,2.5875,2.5887,2.5897,2.5906,2.5929,2.5932,2.5929,2.5955,2.5955,2.5947,2.5937,2.5928,2.5928,2.5943,2.5943,2.5943,0,2.5629,2.5653,2.5678,2.5714,2.5723,2.5736,2.5763,2.5781,2.5809,2.5823,2.5841,2.5861,2.5879,2.5887,2.5914,2.5911,2.5923,2.5936,2.5937,2.594,2.5949,2.594,2.5928,2.5928,2.5944,2.5944,2.5944,0,2.5604,2.5643,2.5663,2.5677,2.572,2.5728,2.5746,2.5775,2.579,2.5814,2.5824,2.5849,2.5863,2.5882,2.5908,2.5911,2.5932,2.5942,2.5944,2.5944,2.5947,2.5946,2.5937,2.5954,2.5954,2.5954,2.5954,0,2.5596,2.5609,2.5653,2.5665,2.5682,2.5712,2.5728,2.5748,2.5774,2.579,2.5815,2.5829,2.5863,2.5882,2.5902,2.5921,2.5927,2.5939,2.5944,2.5937,2.5935,2.5945,2.5946,2.5954,2.5954,2.5954,2.5954,0,2.5571,2.56,2.5624,2.5664,2.5674,2.5684,2.5718,2.5731,2.5753,2.5774,2.578,2.5814,2.5838,2.5866,2.5898,2.5912,2.593,2.5938,2.5921,2.5924,2.5925,2.5925,2.5922,2.5923,2.5939,2.5938,2.5938,0,2.5563,2.5575,2.5617,2.563,2.5648,2.5669,2.5686,2.5717,2.5732,2.5766,2.5775,2.5801,2.5824,2.5861,2.5888,2.5913,2.5922,2.5919,2.5926,2.5919,2.5923,2.5922,2.5923,2.5917,2.5917,2.5917,2.5916,0,2.5547,2.5562,2.5585,2.5614,2.5633,2.5656,2.5681,2.5691,2.5726,2.5743,2.5769,2.5786,2.5821,2.5846,2.5875,2.5894,2.5911,2.5914,2.5916,2.5909,2.5899,2.5905,2.5917,2.5914,2.5914,2.5914,2.5915,2.5915,2.5531,2.5544,2.5575,2.5601,2.5623,2.5646,2.5661,2.5685,2.5708,2.5739,2.5756,2.5781,2.581,2.5852,2.587,2.589,2.5896,2.5898,2.5899,2.5899,2.5898,2.5896,2.5895,2.5895,2.5895,2.5895,2.5896,0,2.5517,2.554,2.5563,2.5598,2.5618,2.5634,2.5662,2.5678,2.5701,2.5727,2.5749,2.5779,2.5805,2.5835,2.5863,2.5873,2.5882,2.588,2.5879,2.5883,2.589,2.5886,2.5872,2.5872,2.5872,2.5872,2.5872,2.5872,2.5512,2.5534,2.5553,2.5587,2.5609,2.5635,2.565,2.5672,2.5694,2.5726,2.5749,2.5769,2.5797,2.5827,2.5852,2.586,2.5869,2.5864,2.5875,2.5881,2.5883,2.5884,2.5881,2.5866,2.5866,2.5866,2.5866,2.5866]}]]